TimeEDT,TemperatureF,Dew PointF,Humidity,Sea Level PressureIn,VisibilityMPH,Wind Direction,Wind SpeedMPH,Gust SpeedMPH,PrecipitationIn,Events,Conditions,WindDirDegrees,DateUTC
12:53 AM,78.1,77.0,96,30.06,9.0,SSE,3.5,-,0.01,,Clear,150,2012-10-03 04:53:00
1:53 AM,77.0,75.9,96,30.04,10.0,Calm,Calm,-,N/A,,Clear,0,2012-10-03 05:53:00
2:53 AM,77.0,75.9,96,30.05,10.0,Calm,Calm,-,N/A,,Clear,0,2012-10-03 06:53:00
3:53 AM,77.0,77.0,100,30.04,10.0,Calm,Calm,-,N/A,,Clear,0,2012-10-03 07:53:00
4:53 AM,78.1,77.0,96,30.04,10.0,Calm,Calm,-,N/A,,Clear,0,2012-10-03 08:53:00
5:53 AM,77.0,75.9,96,30.05,10.0,Calm,Calm,-,N/A,,Clear,0,2012-10-03 09:53:00
6:53 AM,79.0,75.9,90,30.06,10.0,East,3.5,-,N/A,,Clear,80,2012-10-03 10:53:00
7:53 AM,81.0,77.0,88,30.07,10.0,ENE,6.9,-,N/A,,Clear,70,2012-10-03 11:53:00
8:53 AM,84.0,80.1,88,30.08,10.0,East,8.1,-,N/A,,Clear,80,2012-10-03 12:53:00
9:53 AM,86.0,80.1,82,30.09,10.0,ESE,6.9,-,N/A,,Clear,110,2012-10-03 13:53:00
10:53 AM,87.1,81.0,82,30.10,10.0,ESE,6.9,-,N/A,,Clear,120,2012-10-03 14:53:00
11:53 AM,88.0,80.1,77,30.10,10.0,ESE,9.2,18.4,N/A,,Clear,120,2012-10-03 15:53:00
12:53 PM,89.1,80.1,75,30.10,10.0,SE,5.8,-,N/A,,Clear,130,2012-10-03 16:53:00
1:53 PM,89.1,79.0,72,30.09,10.0,SE,6.9,-,N/A,,Partly Cloudy,130,2012-10-03 17:53:00
2:53 PM,89.1,79.0,72,30.07,10.0,ESE,5.8,-,N/A,,Partly Cloudy,120,2012-10-03 18:53:00
3:53 PM,88.0,79.0,75,30.06,10.0,ESE,4.6,-,N/A,,Partly Cloudy,120,2012-10-03 19:53:00
4:53 PM,89.1,78.1,70,30.07,10.0,Variable,3.5,-,N/A,,Clear,0,2012-10-03 20:53:00
5:53 PM,86.0,77.0,74,30.07,10.0,East,5.8,-,N/A,,Clear,100,2012-10-03 21:53:00
6:53 PM,84.9,78.1,80,30.07,10.0,East,5.8,-,N/A,,Partly Cloudy,90,2012-10-03 22:53:00
7:53 PM,84.9,78.1,80,30.08,10.0,East,4.6,-,N/A,,Clear,90,2012-10-03 23:53:00
8:53 PM,84.0,80.1,88,30.10,10.0,East,9.2,-,N/A,,Scattered Clouds,90,2012-10-04 00:53:00
9:53 PM,84.0,79.0,85,30.11,10.0,East,4.6,-,N/A,,Clear,80,2012-10-04 01:53:00
10:53 PM,84.0,78.1,82,30.14,10.0,East,8.1,-,N/A,,Clear,90,2012-10-04 02:53:00
11:53 PM,84.0,79.0,85,30.13,10.0,East,8.1,17.3,N/A,,Clear,80,2012-10-04 03:53:00